User: anonymous   Login
Location: Unspecified
(29.9680°N, 0.0000°E)
Time: 11:37:03
(UTC+00:00)
Language:

S-56A Canister/Altair - Orbit

View from above orbital plane
View from above orbital plane
View from above satellite
View from above satellite

Ground track
Ground track

The orbit data is extracted from the following two-line orbital elements,

1    82U 61004B   19166.88024843 +.00000030 +00000-0 +72161-4 0  9995
2    82 038.8547 119.4129 1174537 109.5604 263.5520 12.26037645762696
Epoch (UTC): 15 June 2019 21:07:33
Eccentricity: 0.1174537
inclination: 38.8547°
perigee height: 633 km
apogee height: 2499 km
right ascension of ascending node: 119.4129°
argument of perigee: 109.5604°
revolutions per day: 12.26037645
mean anomaly at epoch: 263.5520°
orbit number at epoch: 76269

The dashed part of the orbit path shows where the satellite is in the earth's shadow,  

DLR